Marshall, TX

6:09 PM CST on December 15, 2019 (GMT -0600)
Harrison County

Weather History for KASL - October, 2019

Change the Weather History Date:

Monday, October 21, 2019

  Actual Average (KGGG) Record (KGGG)
Temperature  
Mean Temperature 62 °F -  
Max Temperature 75 °F 74 °F 94 °F (1934)
Min Temperature 50 °F 53 °F 34 °F (1966)
Degree Days  
Heating Degree Days 2    
Growing Degree Days 12 (Base 50)    
Moisture  
Dew Point 55 °F    
Average Humidity 74    
Maximum Humidity 94    
Minimum Humidity 32    
Precipitation  
Precipitation 0.88 in - - ()
Sea Level Pressure  
Sea Level Pressure 29.86 in    
Wind  
Wind Speed 7 mph (WNW)    
Max Wind Speed 18 mph    
Max Gust Speed 22 mph    
Visibility 10 miles    
Events      
Averages and records for this station are not official NWS values.
T = Trace of Precipitation, MM = Missing Value Source: NWS Daily Summary

Daily Weather History Graph

Daily Weather History Graph

Search for Another Location

Airport or City:

Astronomy

Oct. 21, 2019 Rise Set
Actual Time 7:25 AM CDT 6:37 PM CDT
Civil Twilight 7:00 AM CDT 7:02 PM CDT
Nautical Twilight 6:31 AM CDT 7:31 PM CDT
Astronomical Twilight 6:03 AM CDT 7:59 PM CDT
Moon 12:01 AM CDT (10/21) 2:32 PM CDT (10/21)
Length of Visible Light 12h 02m
Length of Day
11h 12m
Waning Gibbous, 48% of the Moon is Illuminated
Oct 21
Waning Gibbous
Oct 27
New
Nov 4
First Quarter
Nov 12
Full
Nov 19
Last Quarter

Hourly Weather History & Observations

Time (CDT) Temp. Dew Point Humidity Pressure Visibility Wind Dir Wind Speed Gust Speed Precip Events Conditions
12:15 AM 72.5 °F 69.8 °F 91% 29.71 in 10.0 mi South 10.4 mph - N/A   Mostly Cloudy
12:35 AM 72.5 °F 69.8 °F 91% 29.70 in 10.0 mi South 10.4 mph - N/A   Overcast
12:55 AM 72.5 °F 69.8 °F 91% 29.68 in 10.0 mi South 9.2 mph 16.1 mph N/A   Overcast
1:15 AM 72.5 °F 69.6 °F 91% 29.68 in 10.0 mi South 10.4 mph - N/A   Overcast
1:35 AM 73.0 °F 70.0 °F 90% 29.68 in 10.0 mi South 9.2 mph - N/A   Overcast
1:55 AM 73.2 °F 70.2 °F 90% 29.68 in 10.0 mi South 9.2 mph - N/A   Overcast
2:15 AM 75.2 °F 71.6 °F 89% 29.68 in 10.0 mi South 9.2 mph - N/A   Overcast
2:35 AM 75.2 °F 71.6 °F 89% 29.68 in 10.0 mi South 10.4 mph - N/A   Overcast
2:55 AM 75.2 °F 71.2 °F 87% 29.69 in 10.0 mi SSW 11.5 mph 16.1 mph N/A   Overcast
3:15 AM 75.2 °F 70.7 °F 86% 29.68 in 10.0 mi South 15.0 mph 19.6 mph N/A   Overcast
3:35 AM 75.2 °F 70.7 °F 86% 29.69 in 10.0 mi SSW 10.4 mph - N/A   Overcast
3:55 AM 75.2 °F 70.7 °F 86% 29.68 in 10.0 mi South 11.5 mph 19.6 mph N/A   Overcast
4:15 AM 74.7 °F 67.8 °F 79% 29.73 in 10.0 mi NW 18.4 mph 21.9 mph N/A   Overcast
4:35 AM 66.4 °F 62.2 °F 86% 29.73 in 1.5 mi NW 16.1 mph - 0.10 in   Unknown
4:55 AM 64.9 °F 62.6 °F 92% 29.78 in 0.5 mi West 3.5 mph - 0.81 in   Overcast
5:15 AM 64.9 °F 62.6 °F 92% 29.76 in 10.0 mi WSW 5.8 mph - 0.02 in   Overcast
5:35 AM 64.9 °F 62.6 °F 92% 29.74 in 10.0 mi Calm Calm - 0.03 in   Overcast
5:55 AM 64.9 °F 62.8 °F 93% 29.73 in 7.0 mi WSW 4.6 mph - 0.05 in   Mostly Cloudy
6:15 AM 64.9 °F 63.0 °F 93% 29.74 in 10.0 mi SW 3.5 mph - 0.01 in   Mostly Cloudy
6:35 AM 64.9 °F 63.0 °F 93% 29.76 in - SSW 5.8 mph - N/A   Unknown
6:55 AM 64.9 °F 63.0 °F 93% 29.77 in 10.0 mi SSW 3.5 mph - 0.01 in   Mostly Cloudy
7:15 AM 64.9 °F 63.0 °F 93% 29.80 in 10.0 mi SW 3.5 mph - 0.01 in   Overcast
7:35 AM 64.9 °F 63.0 °F 93% 29.79 in 10.0 mi Calm Calm - 0.01 in   Mostly Cloudy
7:55 AM 64.9 °F 63.0 °F 93% 29.79 in 10.0 mi Calm Calm - 0.01 in   Scattered Clouds
8:15 AM 64.9 °F 63.1 °F 94% 29.80 in 10.0 mi SW 3.5 mph - N/A   Mostly Cloudy
8:35 AM 64.9 °F 63.1 °F 94% 29.81 in 10.0 mi Calm Calm - N/A   Scattered Clouds
8:55 AM 64.9 °F 63.0 °F 93% 29.83 in 10.0 mi NW 4.6 mph - N/A   Scattered Clouds
9:15 AM 64.9 °F 62.2 °F 91% 29.84 in 10.0 mi NNW 6.9 mph - N/A   Clear
9:35 AM 64.9 °F 60.8 °F 86% 29.86 in 7.0 mi NNW 8.1 mph - N/A   Clear
9:55 AM 64.0 °F 59.7 °F 86% 29.87 in 10.0 mi North 4.6 mph - N/A   Clear
10:15 AM 64.9 °F 60.3 °F 85% 29.88 in 10.0 mi North 5.8 mph - N/A   Clear
10:35 AM 64.9 °F 57.4 °F 76% 29.89 in 10.0 mi NNW 9.2 mph - N/A   Clear
10:55 AM 64.9 °F 55.8 °F 72% 29.89 in 10.0 mi NNW 8.1 mph - N/A   Clear
11:15 AM 64.9 °F 52.2 °F 63% 29.89 in 10.0 mi NNW 9.2 mph - N/A   Clear
11:35 AM 64.9 °F 52.5 °F 64% 29.90 in 10.0 mi NNW 8.1 mph - N/A   Clear
11:55 AM 67.5 °F 52.2 °F 58% 29.90 in 10.0 mi NNW 9.2 mph - N/A   Clear
12:15 PM 69.8 °F 53.2 °F 56% 29.91 in 10.0 mi NW 6.9 mph - N/A   Clear
12:35 PM 70.0 °F 51.8 °F 52% 29.90 in 10.0 mi WNW 5.8 mph - N/A   Clear
12:55 PM 70.0 °F 48.4 °F 46% 29.89 in 10.0 mi NNW 6.9 mph - N/A   Clear
1:15 PM 70.0 °F 45.0 °F 41% 29.89 in 10.0 mi NW 5.8 mph - N/A   Clear
1:35 PM 70.7 °F 46.4 °F 42% 29.88 in 10.0 mi North 6.9 mph - N/A   Clear
1:55 PM 72.1 °F 45.1 °F 38% 29.88 in 10.0 mi NW 8.1 mph - N/A   Clear
2:15 PM 72.5 °F 46.2 °F 39% 29.87 in 10.0 mi North 6.9 mph - N/A   Clear
2:35 PM 72.5 °F 44.8 °F 37% 29.87 in 10.0 mi WNW 11.5 mph - N/A   Clear
2:55 PM 72.5 °F 44.4 °F 36% 29.88 in 10.0 mi NNW 8.1 mph - N/A   Clear
3:15 PM 72.5 °F 42.8 °F 34% 29.87 in 10.0 mi NW 5.8 mph - N/A   Clear
3:35 PM 72.5 °F 43.0 °F 35% 29.87 in 10.0 mi NNW 6.9 mph - N/A   Clear
3:55 PM 72.5 °F 41.4 °F 32% 29.88 in 10.0 mi NNW 6.9 mph - N/A   Clear
4:15 PM 72.5 °F 42.8 °F 34% 29.89 in 10.0 mi NNW 9.2 mph - N/A   Clear
4:35 PM 72.5 °F 43.3 °F 35% 29.89 in 10.0 mi NNW 6.9 mph - N/A   Clear
4:55 PM 72.5 °F 42.1 °F 33% 29.89 in 10.0 mi NW 9.2 mph - N/A   Clear
5:15 PM 72.5 °F 41.7 °F 33% 29.89 in 10.0 mi WNW 8.1 mph - N/A   Clear
5:55 PM 70.0 °F 42.4 °F 37% 29.89 in 10.0 mi NW 6.9 mph - N/A   Clear
6:15 PM 67.8 °F 43.9 °F 42% 29.91 in 10.0 mi NNW 6.9 mph - N/A   Clear
6:35 PM 64.9 °F 45.1 °F 49% 29.92 in 10.0 mi NW 5.8 mph - N/A   Clear
6:55 PM 62.6 °F 46.2 °F 55% 29.93 in 10.0 mi NNW 4.6 mph - N/A   Clear
7:15 PM 59.2 °F 46.9 °F 64% 29.95 in 10.0 mi Calm Calm - N/A   Clear
7:35 PM 55.8 °F 49.3 °F 79% 29.97 in 10.0 mi Calm Calm - N/A   Clear
7:55 PM 54.9 °F 51.1 °F 87% 29.98 in 10.0 mi Calm Calm - N/A   Clear
8:15 PM 52.9 °F 49.1 °F 87% 29.99 in 10.0 mi Calm Calm - N/A   Clear
8:35 PM 52.7 °F 48.6 °F 86% 30.00 in 10.0 mi Calm Calm - N/A   Clear
8:55 PM 52.7 °F 49.6 °F 89% 30.01 in 10.0 mi Calm Calm - N/A   Clear
9:15 PM 50.7 °F 48.0 °F 90% 30.03 in 10.0 mi Calm Calm - N/A   Clear
9:35 PM 52.0 °F 49.3 °F 90% 30.03 in 10.0 mi Calm Calm - N/A   Clear
9:55 PM 50.4 °F 47.8 °F 91% 30.04 in 10.0 mi Calm Calm - N/A   Clear
10:15 PM 50.0 °F 47.7 °F 92% 30.06 in 10.0 mi Calm Calm - N/A   Clear
10:35 PM 50.0 °F 47.8 °F 92% 30.06 in 10.0 mi Calm Calm - N/A   Clear
10:55 PM 50.0 °F 48.2 °F 94% 30.08 in 10.0 mi Calm Calm - N/A   Clear
11:15 PM 50.0 °F 48.2 °F 94% 30.08 in 10.0 mi Calm Calm - N/A   Clear
11:35 PM 50.0 °F 48.2 °F 94% 30.08 in 10.0 mi Calm Calm - N/A   Clear
11:55 PM 50.0 °F 48.2 °F 94% 30.08 in 10.0 mi Calm Calm - N/A   Clear